User: anonymous   Login
Location: Aciu?a
(46.2833°N, 22.4500°E)
Time: 07:22:21
(UTC+00:00)
Language:

Cosmos 1943 Rocket - Orbit

View from above orbital plane
View from above orbital plane
View from above satellite
View from above satellite

Ground track
Ground track

The orbit data is extracted from the following two-line orbital elements,

1 19120U 88039B   22023.68377989 -.00000137  00000-0 -42591-4 0  9995
2 19120  71.0156  11.8833 0020170 134.3795 225.8986 14.19232374744686
Epoch (UTC): 23 January 2022 16:24:38
Eccentricity: 0.0020170
inclination: 71.0156°
perigee height: 813 km
apogee height: 842 km
right ascension of ascending node: 11.8833°
argument of perigee: 134.3795°
revolutions per day: 14.19232374
mean anomaly at epoch: 225.8986°
orbit number at epoch: 74468

The dashed part of the orbit path shows where the satellite is in the earth's shadow,  

DLR